User: anonymous   Login
Location: Nirvana
(45.0297°N, 77.2628°W)
Time: 23:36:48
(UTC-04:00)
Language:

H-2A R/B - Orbit

View from above orbital plane
View from above orbital plane
View from above satellite
View from above satellite

Ground track
Ground track

The orbit data is extracted from the following two-line orbital elements,

1 27601U 02056E   17177.27394877 +.00000041 +00000-0 +30351-4 0  9990
2 27601 098.3758 244.7566 0070910 268.4853 131.0624 14.31784898759118
Epoch (UTC): 26 June 2017 06:34:29
Eccentricity: 0.0070910
inclination: 98.3758°
perigee height: 735 km
apogee height: 836 km
right ascension of ascending node: 244.7566°
argument of perigee: 268.4853°
revolutions per day: 14.31784898
mean anomaly at epoch: 131.0624°
orbit number at epoch: 75911

The dashed part of the orbit path shows where the satellite is in the earth's shadow,  

DLR